Weather History for Rogers, AR

Change the Weather History Date:

Monday, December 10, 2012

  Actual Average Record
Temperature  
Mean Temperature 26 °F -  
Max Temperature 32 °F 47 °F 73 °F (1996)
Min Temperature 21 °F 30 °F 10 °F (2013)
Degree Days  
Heating Degree Days 38    
Moisture  
Dew Point 18 °F    
Average Humidity 72    
Maximum Humidity 85    
Minimum Humidity 59    
Precipitation  
Precipitation 0.00 in - - ()
Sea Level Pressure  
Sea Level Pressure 30.07 in    
Wind  
Wind Speed 10 mph (WNW)    
Max Wind Speed 16 mph    
Max Gust Speed 21 mph    
Visibility 10 miles    
Events      
Averages and records for this station are not official NWS values.
T = Trace of Precipitation, MM = Missing Value Source: NWS Daily Summary

Daily Weather History Graph

Daily Weather History Graph

Search for Another Location

Airport:

Trip Planner

Search our weather history database for the weather conditions in past years. The results will help you decide how hot, cold, wet, or windy it might be!

Date:

Astronomy

Dec. 10, 2012 Rise Set
Actual Time 7:17 AM CST 5:01 PM CST
Civil Twilight 6:48 AM CST 5:30 PM CST
Nautical Twilight 6:16 AM CST 6:02 PM CST
Astronomical Twilight 5:45 AM CST 6:33 PM CST
Moon 4:05 AM CST (12/10) 2:48 PM CST (12/10)
Length of Visible Light 10h 41m
Length of Day
9h 43m
Waning Crescent, 10% of the Moon is Illuminated
Dec 10
Waning Crescent
Dec 13
New
Dec 19
First Quarter
Dec 28
Full
Jan 4
Last Quarter

Hourly Weather History & Observations

Time (CST) Temp. Windchill Dew Point Humidity Pressure Visibility Wind Dir Wind Speed Gust Speed Precip Events Conditions
12:57 AM 27.0 °F 16.7 °F 17.1 °F 66% 30.04 in 10.0 mi NW 11.5 mph - N/A   Clear
1:57 AM 26.1 °F 16.2 °F 17.1 °F 69% 30.03 in 10.0 mi NW 10.4 mph - N/A   Clear
2:57 AM 25.0 °F 14.2 °F 17.1 °F 72% 30.04 in 10.0 mi NNW 11.5 mph - N/A   Clear
3:57 AM 24.1 °F 11.0 °F 17.1 °F 75% 30.04 in 10.0 mi NW 16.1 mph - N/A   Mostly Cloudy
4:57 AM 24.1 °F 12.5 °F 17.1 °F 75% 30.03 in 10.0 mi NW 12.7 mph 20.7 mph N/A   Overcast
5:57 AM 23.0 °F 13.9 °F 15.1 °F 72% 30.06 in 10.0 mi WNW 8.1 mph - N/A   Overcast
6:45 AM 23.0 °F 11.7 °F 15.8 °F 74% 30.06 in 10.0 mi NW 11.5 mph - N/A   Overcast
6:57 AM 23.0 °F 12.4 °F 15.1 °F 72% 30.09 in 10.0 mi WNW 10.4 mph - N/A   Overcast
7:57 AM 23.0 °F 12.4 °F 16.0 °F 74% 30.11 in 10.0 mi WNW 10.4 mph - N/A   Overcast
8:57 AM 24.1 °F 12.5 °F 16.0 °F 71% 30.09 in 10.0 mi WNW 12.7 mph - N/A   Overcast
9:57 AM 25.0 °F 16.3 °F 18.0 °F 75% 30.10 in 10.0 mi WNW 8.1 mph - N/A   Overcast
10:57 AM 27.0 °F 18.0 °F 19.0 °F 72% 30.10 in 10.0 mi NW 9.2 mph - N/A   Overcast
11:57 AM 28.0 °F 18.6 °F 19.9 °F 72% 30.09 in 10.0 mi WNW 10.4 mph - N/A   Mostly Cloudy
12:42 PM 28.4 °F 17.0 °F 19.4 °F 69% 30.03 in 10.0 mi NW 15.0 mph - N/A   Scattered Clouds
12:57 PM 28.9 °F 19.2 °F 19.9 °F 69% 30.06 in 10.0 mi WNW 11.5 mph - N/A   Scattered Clouds
1:08 PM 30.2 °F 22.6 °F 19.4 °F 64% 30.03 in 10.0 mi West 8.1 mph - N/A   Mostly Cloudy
1:16 PM 30.2 °F 21.3 °F 19.4 °F 64% 30.02 in 10.0 mi WNW 10.4 mph 19.6 mph N/A   Scattered Clouds
1:57 PM 30.9 °F 22.2 °F 19.9 °F 64% 30.06 in 10.0 mi West 10.4 mph 16.1 mph N/A   Clear
2:57 PM 32.0 °F 26.4 °F 19.0 °F 59% 30.06 in 10.0 mi NW 5.8 mph - N/A   Clear
3:57 PM 32.0 °F 26.4 °F 19.0 °F 59% 30.06 in 10.0 mi Variable 5.8 mph - N/A   Clear
4:57 PM 28.9 °F 21.1 °F 19.9 °F 69% 30.06 in 10.0 mi NW 8.1 mph - N/A   Clear
5:57 PM 27.0 °F 20.5 °F 19.0 °F 72% 30.09 in 10.0 mi WNW 5.8 mph - N/A   Clear
6:57 PM 26.1 °F 19.4 °F 19.0 °F 75% 30.11 in 10.0 mi West 5.8 mph - N/A   Clear
7:57 PM 24.1 °F 17.0 °F 18.0 °F 77% 30.10 in 10.0 mi South 5.8 mph - N/A   Clear
8:57 PM 24.1 °F 19.7 °F 19.0 °F 81% 30.11 in 10.0 mi WSW 3.5 mph - N/A   Clear
9:57 PM 23.0 °F - 19.0 °F 85% 30.12 in 10.0 mi Calm Calm - N/A   Clear
10:57 PM 21.9 °F 17.2 °F 18.0 °F 85% 30.12 in 10.0 mi SW 3.5 mph - N/A   Clear
11:57 PM 21.0 °F 14.6 °F 17.1 °F 85% 30.14 in 10.0 mi SSW 4.6 mph - N/A   Clear